| time (UTC) | temp F | wind direction | speed knots | gust knots | rain 1hr in | rain 24hr in | rain mn in | humidity % | barometer mb |
| 20260906171539 | 59 | 0.0 | 0.0 | 0.00 | 0.00 | 0.00 | 69 | 1011.0 | |
| 20260906170040 | 59 | 0.0 | 0.0 | 0.00 | 0.00 | 0.00 | 67 | 1011.1 | |
| 20260906164530 | 59 | 0.0 | 0.0 | 0.00 | 0.00 | 0.00 | 69 | 1011.1 | |
| 20260906163026 | 60 | 0.0 | 0.0 | 0.00 | 0.00 | 0.00 | 68 | 1011.3 | |
| 20260906161522 | 59 | 0.0 | 0.0 | 0.00 | 0.00 | 0.00 | 68 | 1011.4 | |
| 20260906160017 | 59 | 0.0 | 0.0 | 0.00 | 0.00 | 0.00 | 70 | 1011.6 | |
| 20260906154518 | 59 | 0.0 | 0.0 | 0.00 | 0.00 | 0.00 | 72 | 1011.7 | |
| 20260906153008 | 59 | 0.0 | 0.0 | 0.00 | 0.00 | 0.00 | 71 | 1011.9 | |
| 20260906151504 | 59 | 0.0 | 0.0 | 0.00 | 0.00 | 0.00 | 70 | 1012.1 | |
| 20260906150100 | 58 | 0.0 | 0.0 | 0.00 | 0.00 | 0.00 | 70 | 1012.2 | |
| 20260906144556 | 58 | 0.0 | 0.0 | 0.00 | 0.00 | 0.00 | 69 | 1012.4 | |
| 20260906143050 | 57 | 0.0 | 0.0 | 0.00 | 0.00 | 0.00 | 76 | 1012.4 | |
| 20260906141546 | 55 | 0.0 | 0.0 | 0.00 | 0.00 | 0.00 | 82 | 1012.5 | |
| 20260906140042 | 53 | 0.0 | 0.0 | 0.00 | 0.00 | 0.00 | 84 | 1012.7 | |
| 20260906134537 | 53 | 0.0 | 0.0 | 0.00 | 0.00 | 0.00 | 84 | 1012.7 | |
| 20260906133033 | 53 | 0.0 | 0.0 | 0.00 | 0.00 | 0.00 | 84 | 1012.7 | |
| 20260906131540 | 53 | 0.0 | 0.0 | 0.00 | 0.00 | 0.00 | 83 | 1012.7 | |
| 20260906130025 | 53 | 0.0 | 0.0 | 0.00 | 0.00 | 0.00 | 83 | 1012.8 | |
| 20260906124519 | 53 | 0.0 | 0.0 | 0.00 | 0.00 | 0.00 | 83 | 1012.9 | |
| 20260906123015 | 52 | 0.0 | 0.0 | 0.00 | 0.00 | 0.00 | 83 | 1012.7 | |
| 20260906121512 | 52 | 0.0 | 0.0 | 0.00 | 0.00 | 0.00 | 83 | 1012.9 | |
| 20260906120007 | 51 | 0.0 | 0.0 | 0.00 | 0.00 | 0.00 | 84 | 1013.2 | |
| 20260906114502 | 51 | 0.0 | 0.0 | 0.00 | 0.01 | 0.00 | 84 | 1013.2 | |
| 20260906113101 | 50 | 0.0 | 0.0 | 0.00 | 0.01 | 0.00 | 85 | 1013.2 | |
| 20260906111607 | 50 | 0.0 | 0.0 | 0.00 | 0.01 | 0.00 | 85 | 1013.2 | |
| 20260906110051 | 50 | 0.0 | 0.0 | 0.00 | 0.01 | 0.00 | 84 | 1013.1 | |
| 20260906104545 | 49 | 0.0 | 0.0 | 0.00 | 0.01 | 0.00 | 85 | 1012.9 | |
| 20260906103043 | 49 | 0.0 | 0.0 | 0.00 | 0.01 | 0.00 | 86 | 1012.9 | |
| 20260906101538 | 48 | 0.0 | 0.0 | 0.00 | 0.01 | 0.00 | 86 | 1012.9 | |
| 20260906100032 | 49 | 0.0 | 0.0 | 0.00 | 0.01 | 0.00 | 86 | 1012.9 | |
| 20260906094536 | 49 | 0.0 | 0.0 | 0.00 | 0.01 | 0.00 | 86 | 1012.8 | |
| 20260906093034 | 49 | 0.0 | 0.0 | 0.00 | 0.01 | 0.00 | 85 | 1012.7 | |
| 20260906091519 | 49 | 0.0 | 0.0 | 0.00 | 0.01 | 0.00 | 84 | 1012.7 | |
| 20260906090014 | 49 | 0.0 | 0.0 | 0.00 | 0.01 | 0.00 | 84 | 1012.7 | |
| 20260906084510 | 50 | 0.0 | 0.0 | 0.00 | 0.01 | 0.00 | 83 | 1012.4 | |
| 20260906083013 | 50 | 0.0 | 0.0 | 0.00 | 0.01 | 0.00 | 84 | 1012.5 | |
| 20260906081501 | 51 | 0.0 | 0.0 | 0.00 | 0.01 | 0.00 | 83 | 1012.4 | |
| 20260906080108 | 51 | 0.0 | 0.0 | 0.00 | 0.01 | 0.00 | 84 | 1012.4 | |
| 20260906074552 | 51 | 0.0 | 0.0 | 0.00 | 0.01 | 0.00 | 85 | 1012.5 | |
| 20260906073048 | 50 | 0.0 | 0.0 | 0.00 | 0.01 | 0.00 | 86 | 1012.7 | |
| 20260906071557 | 50 | 0.0 | 0.0 | 0.00 | 0.01 | 0.00 | 87 | 1012.6 | |
| 20260906070039 | 50 | 0.0 | 0.0 | 0.00 | 0.01 | 0.00 | 86 | 1012.6 | |
| 20260906064534 | 50 | 0.0 | 0.0 | 0.00 | 0.21 | 0.00 | 86 | 1012.5 | |
| 20260906063030 | 50 | 0.0 | 0.0 | 0.00 | 0.21 | 0.00 | 88 | 1012.5 | |
| 20260906061526 | 50 | 0.0 | 0.0 | 0.00 | 0.21 | 0.00 | 87 | 1012.6 | |
| 20260906060027 | 50 | 0.0 | 0.0 | 0.00 | 0.21 | 0.00 | 86 | 1012.5 | |
| 20260906054517 | 50 | 0.0 | 0.0 | 0.00 | 0.32 | 0.00 | 85 | 1012.6 | |
| 20260906053012 | 50 | 0.0 | 0.0 | 0.00 | 0.32 | 0.00 | 87 | 1012.7 | |
| 20260906051508 | 49 | 0.0 | 0.0 | 0.00 | 0.32 | 0.00 | 87 | 1012.7 | |
| 20260906050004 | 49 | 0.0 | 0.0 | 0.00 | 0.32 | 0.00 | 88 | 1012.8 | |
| 20260906044602 | 49 | 0.0 | 0.0 | 0.00 | 0.44 | 0.00 | 89 | 1012.8 | |
| 20260906043056 | 50 | 0.0 | 0.0 | 0.00 | 0.44 | 0.00 | 90 | 1012.8 | |
| 20260906041555 | 50 | 0.0 | 0.0 | 0.00 | 0.44 | 0.00 | 90 | 1012.7 | |
| 20260906040046 | 50 | 0.0 | 0.0 | 0.00 | 0.44 | 0.00 | 91 | 1012.8 | |
| 20260906034546 | 49 | 0.0 | 0.0 | 0.00 | 0.44 | 0.44 | 90 | 1012.8 | |
| 20260906033038 | 50 | 0.0 | 0.0 | 0.00 | 0.44 | 0.44 | 88 | 1012.9 | |
| 20260906031534 | 51 | 0.0 | 0.0 | 0.00 | 0.44 | 0.44 | 86 | 1012.9 | |
| 20260906030029 | 52 | 0.0 | 0.0 | 0.00 | 0.44 | 0.44 | 84 | 1012.9 | |
| 20260906024524 | 52 | 0.0 | 0.0 | 0.00 | 0.44 | 0.44 | 86 | 1013.1 | |
| 20260906023019 | 52 | 0.0 | 0.0 | 0.00 | 0.44 | 0.44 | 86 | 1013.0 | |
| 20260906021517 | 53 | 0.0 | 0.0 | 0.00 | 0.44 | 0.44 | 84 | 1013.0 | |
| 20260906020012 | 54 | 0.0 | 0.0 | 0.00 | 0.44 | 0.44 | 84 | 1013.1 | |
| 20260906014521 | 54 | 0.0 | 0.0 | 0.00 | 0.44 | 0.44 | 86 | 1013.2 | |
| 20260906013005 | 54 | 0.0 | 0.0 | 0.00 | 0.44 | 0.44 | 86 | 1013.0 | |
| 20260906011601 | 54 | 0.0 | 0.0 | 0.00 | 0.44 | 0.44 | 88 | 1013.2 | |
| 20260906010059 | 54 | 0.0 | 0.0 | 0.00 | 0.44 | 0.44 | 88 | 1013.0 | |
| 20260906004549 | 54 | 0.0 | 0.0 | 0.00 | 0.44 | 0.44 | 87 | 1013.1 | |
| 20260906003056 | 54 | 0.0 | 0.0 | 0.00 | 0.44 | 0.44 | 87 | 1013.1 | |
| 20260906001540 | 55 | 0.0 | 0.0 | 0.00 | 0.44 | 0.44 | 85 | 1013.0 | |
| 20260906000036 | 56 | 0.0 | 0.0 | 0.00 | 0.44 | 0.44 | 83 | 1012.9 | |
| 20260905234532 | 57 | 0.0 | 0.0 | 0.00 | 0.44 | 0.44 | 81 | 1012.9 | |
| 20260905233029 | 57 | 0.0 | 0.0 | 0.00 | 0.44 | 0.44 | 80 | 1012.9 | |
| 20260905231535 | 58 | 0.0 | 0.0 | 0.00 | 0.44 | 0.44 | 79 | 1012.8 | |
| 20260905230021 | 58 | 0.0 | 0.0 | 0.00 | 0.44 | 0.44 | 79 | 1012.8 | |
| 20260905224524 | 59 | 0.0 | 0.0 | 0.00 | 0.44 | 0.44 | 79 | 1012.3 | |
| 20260905223010 | 59 | 0.0 | 0.0 | 0.00 | 0.44 | 0.44 | 79 | 1012.2 | |
| 20260905221505 | 60 | 0.0 | 0.0 | 0.00 | 0.44 | 0.44 | 77 | 1012.0 | |
| 20260905220001 | 60 | 0.0 | 0.0 | 0.00 | 0.44 | 0.44 | 75 | 1011.9 | |
| 20260905214557 | 61 | 0.0 | 0.0 | 0.00 | 0.45 | 0.44 | 74 | 1011.7 | |
| 20260905213056 | 61 | 0.0 | 0.0 | 0.00 | 0.45 | 0.44 | 72 | 1011.5 | |
| 20260905211547 | 62 | 0.0 | 0.0 | 0.00 | 0.45 | 0.44 | 72 | 1011.3 | |
| 20260905210046 | 62 | 0.0 | 0.0 | 0.00 | 0.45 | 0.44 | 73 | 1011.1 | |
| 20260905204548 | 62 | 0.0 | 0.0 | 0.00 | 0.45 | 0.44 | 72 | 1011.2 | |
| 20260905203036 | 62 | 0.0 | 0.0 | 0.00 | 0.45 | 0.44 | 71 | 1011.1 | |
| 20260905201530 | 62 | 0.0 | 0.0 | 0.00 | 0.45 | 0.44 | 75 | 1010.8 | |
| 20260905200026 | 60 | 0.0 | 0.0 | 0.00 | 0.45 | 0.44 | 77 | 1011.0 | |
| 20260905194522 | 62 | 0.0 | 0.0 | 0.00 | 0.45 | 0.44 | 74 | 1010.9 | |
| 20260905193017 | 62 | 0.0 | 0.0 | 0.00 | 0.45 | 0.44 | 74 | 1010.8 | |
| 20260905191512 | 64 | 0.0 | 0.0 | 0.00 | 0.45 | 0.44 | 68 | 1010.5 | |
| 20260905190011 | 64 | 0.0 | 0.0 | 0.00 | 0.45 | 0.44 | 64 | 1010.5 | |
| 20260905184506 | 63 | 0.0 | 0.0 | 0.00 | 0.45 | 0.44 | 71 | 1010.6 | |
| 20260905183101 | 64 | 0.0 | 0.0 | 0.00 | 0.45 | 0.44 | 67 | 1010.5 | |
| 20260905181600 | 63 | 0.0 | 0.0 | 0.00 | 0.45 | 0.44 | 67 | 1010.4 | |
| 20260905180058 | 64 | 0.0 | 0.0 | 0.00 | 0.45 | 0.44 | 67 | 1010.5 | |
| 20260905174546 | 64 | 0.0 | 0.0 | 0.00 | 0.45 | 0.44 | 68 | 1010.5 | |
| 20260905173042 | 64 | 0.0 | 0.0 | 0.00 | 0.45 | 0.44 | 66 | 1010.4 |